Voltar ao catálogo

STARLINK-32885

AtivoComunicaçõesVLEO
NORAD 62958·PAYLOAD·🇺🇸 United States

Lançado Feb 11, 2025 de Vandenberg Space Force Base

Loading…

Próximas Passagens (próximas 24 horas)

TLE

AtualizadoSource: CelesTrak SupGP

Época: Sep 15, 2026, 02:26 UTC

1 62958C 25029L   26258.10187500 -.00028486  00000+0 -84160-3 0  2582
2 62958  53.1586  66.7912 0001189  81.3432 151.9308 15.34405966    12

Acompanhe STARLINK-32885 em tempo real com AllMySat

Download on the App Store